Time,TemperatureF,DewpointF,PressureIn,WindDirection,WindDirectionDegrees,WindSpeedMPH,WindSpeedGustMPH,Humidity,HourlyPrecipIn,Conditions,Clouds,dailyrainin,SoftwareType,DateUTC
2013-09-10 00:14:00,60.0,58.3,29.95,SE,138,0.0,0.0,94,0.00,CLR,SCT,0.00,WeatherDisplay:10.37,2013-09-10 07:14:00,
2013-09-10 00:29:00,59.7,58.0,29.95,SE,138,0.0,0.0,94,0.00,CLR,SCT,0.00,WeatherDisplay:10.37,2013-09-10 07:29:00,
2013-09-10 00:44:00,59.4,57.7,29.95,SE,138,0.0,0.0,94,0.00,CLR,SCT,0.00,WeatherDisplay:10.37,2013-09-10 07:44:00,
2013-09-10 00:59:00,59.1,57.4,29.95,SE,138,0.0,0.0,94,0.00,CLR,SCT,0.00,WeatherDisplay:10.37,2013-09-10 07:59:00,
2013-09-10 01:14:00,58.7,57.0,29.95,SE,138,0.0,0.0,94,0.00,CLR,SCT,0.00,WeatherDisplay:10.37,2013-09-10 08:14:00,
2013-09-10 01:29:00,58.7,57.3,29.95,SE,138,0.0,0.0,95,0.00,CLR,SCT,0.00,WeatherDisplay:10.37,2013-09-10 08:29:00,
2013-09-10 01:44:00,58.4,57.0,29.95,SE,138,0.0,0.0,95,0.00,CLR,SCT,0.00,WeatherDisplay:10.37,2013-09-10 08:44:00,
2013-09-10 01:59:00,58.0,56.3,29.95,SE,138,0.0,0.0,94,0.00,CLR,SCT,0.00,WeatherDisplay:10.37,2013-09-10 08:59:00,
2013-09-10 02:14:00,57.9,56.5,29.94,SE,138,0.0,0.0,95,0.00,CLR,SCT,0.00,WeatherDisplay:10.37,2013-09-10 09:14:00,
2013-09-10 02:29:00,57.7,56.3,29.94,SE,138,0.0,0.0,95,0.00,CLR,SCT,0.00,WeatherDisplay:10.37,2013-09-10 09:29:00,
2013-09-10 02:44:00,57.9,56.8,29.94,SE,138,0.0,0.0,96,0.00,CLR,SCT,0.00,WeatherDisplay:10.37,2013-09-10 09:44:00,
2013-09-10 02:59:00,57.6,56.2,29.94,SE,138,0.0,0.0,95,0.00,CLR,SCT,0.00,WeatherDisplay:10.37,2013-09-10 09:59:00,
2013-09-10 03:14:00,57.4,56.0,29.94,SE,138,0.0,0.0,95,0.00,CLR,SCT,0.00,WeatherDisplay:10.37,2013-09-10 10:14:00,
2013-09-10 03:29:00,57.4,56.3,29.94,SE,138,0.0,0.0,96,0.00,CLR,SCT,0.00,WeatherDisplay:10.37,2013-09-10 10:29:00,
2013-09-10 03:44:00,57.1,55.7,29.93,SE,138,0.0,0.0,95,0.00,CLR,SCT,0.00,WeatherDisplay:10.37,2013-09-10 10:44:00,
2013-09-10 03:59:00,56.9,55.8,29.93,SE,138,0.0,0.0,96,0.00,CLR,SCT,0.00,WeatherDisplay:10.37,2013-09-10 10:59:00,
2013-09-10 04:14:00,56.6,55.5,29.93,SE,138,0.0,0.0,96,0.00,CLR,SCT,0.00,WeatherDisplay:10.37,2013-09-10 11:14:00,
2013-09-10 04:29:00,56.6,55.5,29.93,SE,138,0.0,0.0,96,0.00,CLR,SCT,0.00,WeatherDisplay:10.37,2013-09-10 11:29:00,
2013-09-10 04:44:00,56.6,55.5,29.92,SE,138,0.0,0.0,96,0.00,CLR,SCT,0.00,WeatherDisplay:10.37,2013-09-10 11:44:00,
2013-09-10 04:59:00,56.2,55.1,29.92,SE,138,0.0,0.0,96,0.00,CLR,SCT,0.00,WeatherDisplay:10.37,2013-09-10 11:59:00,
2013-09-10 05:14:00,56.1,55.0,29.92,SE,138,0.0,0.0,96,0.00,CLR,SCT,0.00,WeatherDisplay:10.37,2013-09-10 12:14:00,
2013-09-10 05:29:00,56.1,55.0,29.92,SE,138,0.0,0.0,96,0.00,CLR,SCT,0.00,WeatherDisplay:10.37,2013-09-10 12:29:00,
2013-09-10 05:44:00,56.0,54.9,29.92,SE,138,0.0,0.0,96,0.00,CLR,SCT,0.00,WeatherDisplay:10.37,2013-09-10 12:44:00,
2013-09-10 05:59:00,56.0,54.9,29.92,SE,138,0.0,0.0,96,0.00,CLR,SCT,0.00,WeatherDisplay:10.37,2013-09-10 12:59:00,
2013-09-10 06:14:00,56.0,54.9,29.92,SE,138,0.0,0.0,96,0.00,CLR,SCT,0.00,WeatherDisplay:10.37,2013-09-10 13:14:00,
2013-09-10 06:29:00,55.9,54.8,29.92,SE,138,0.0,0.0,96,0.00,CLR,SCT,0.00,WeatherDisplay:10.37,2013-09-10 13:29:00,
2013-09-10 06:44:00,55.9,54.8,29.92,SE,138,0.0,0.0,96,0.00,CLR,SCT,0.00,WeatherDisplay:10.37,2013-09-10 13:44:00,
2013-09-10 06:59:00,55.6,54.5,29.92,SE,138,0.0,0.0,96,0.00,CLR,SCT,0.00,WeatherDisplay:10.37,2013-09-10 13:59:00,
2013-09-10 07:14:00,55.3,54.2,29.92,SE,138,0.0,0.0,96,0.01,CLR,SCT,0.01,WeatherDisplay:10.37,2013-09-10 14:14:00,
2013-09-10 07:29:00,55.1,54.0,29.92,SE,138,0.0,0.0,96,0.00,CLR,SCT,0.01,WeatherDisplay:10.37,2013-09-10 14:29:00,
2013-09-10 07:44:00,55.0,54.2,29.93,SE,138,0.0,0.0,97,0.00,CLR,SCT,0.01,WeatherDisplay:10.37,2013-09-10 14:44:00,
2013-09-10 07:59:00,55.0,54.2,29.92,SE,138,0.0,0.0,97,0.00,CLR,SCT,0.01,WeatherDisplay:10.37,2013-09-10 14:59:00,
2013-09-10 08:14:00,55.2,54.4,29.92,SE,138,0.0,0.0,97,0.00,CLR,SCT,0.01,WeatherDisplay:10.37,2013-09-10 15:14:00,
2013-09-10 08:29:00,55.6,54.8,29.92,SE,138,0.0,0.0,97,0.00,CLR,SCT,0.01,WeatherDisplay:10.37,2013-09-10 15:29:00,
2013-09-10 08:44:00,56.2,55.4,29.92,SE,138,0.0,0.0,97,0.00,CLR,SCT,0.01,WeatherDisplay:10.37,2013-09-10 15:44:00,
2013-09-10 08:59:00,57.4,56.6,29.91,SE,134,0.0,0.0,97,0.00,CLR,SCT,0.01,WeatherDisplay:10.37,2013-09-10 15:59:00,
2013-09-10 09:14:00,58.5,57.7,29.91,ESE,110,0.0,0.0,97,0.00,CLR,SCT,0.01,WeatherDisplay:10.37,2013-09-10 16:14:00,
2013-09-10 09:29:00,60.3,59.8,29.91,East,87,0.0,0.0,98,0.00,CLR,SCT,0.01,WeatherDisplay:10.37,2013-09-10 16:29:00,
2013-09-10 09:44:00,62.5,61.0,29.91,East,86,0.0,0.0,95,0.00,CLR,SCT,0.01,WeatherDisplay:10.37,2013-09-10 16:44:00,
2013-09-10 09:59:00,65.1,62.4,29.90,East,85,0.0,0.0,91,0.00,CLR,SCT,0.01,WeatherDisplay:10.37,2013-09-10 16:59:00,
2013-09-10 10:14:00,68.1,64.1,29.90,East,85,0.0,0.0,87,0.00,CLR,SCT,0.01,WeatherDisplay:10.37,2013-09-10 17:14:00,
2013-09-10 10:29:00,71.1,64.9,29.89,East,85,0.0,0.0,81,0.00,CLR,SCT,0.01,WeatherDisplay:10.37,2013-09-10 17:29:00,
2013-09-10 10:44:00,73.6,66.3,29.89,East,82,0.0,0.0,78,0.00,CLR,SCT,0.01,WeatherDisplay:10.37,2013-09-10 17:44:00,
2013-09-10 10:59:00,75.3,65.6,29.89,NE,40,0.0,4.0,72,0.00,CLR,SCT,0.01,WeatherDisplay:10.37,2013-09-10 17:59:00,
2013-09-10 11:14:00,77.1,66.1,29.89,NW,315,0.0,4.0,69,0.00,CLR,SCT,0.01,WeatherDisplay:10.37,2013-09-10 18:14:00,
2013-09-10 11:29:00,78.0,66.2,29.88,NNW,334,0.0,4.0,67,0.00,CLR,SCT,0.01,WeatherDisplay:10.37,2013-09-10 18:29:00,
2013-09-10 11:44:00,79.3,66.5,29.88,NNE,18,1.0,3.0,65,0.00,CLR,SCT,0.01,WeatherDisplay:10.37,2013-09-10 18:44:00,
2013-09-10 11:59:00,79.9,66.2,29.87,North,353,1.0,4.0,63,0.00,CLR,SCT,0.01,WeatherDisplay:10.37,2013-09-10 18:59:00,
2013-09-10 12:14:00,81.4,66.7,29.86,NW,307,0.0,2.0,61,0.00,CLR,SCT,0.01,WeatherDisplay:10.37,2013-09-10 19:14:00,
2013-09-10 12:29:00,82.1,66.4,29.86,North,357,0.0,3.0,59,0.00,CLR,SCT,0.01,WeatherDisplay:10.37,2013-09-10 19:29:00,
2013-09-10 12:44:00,82.6,66.3,29.85,North,356,0.0,3.0,58,0.00,CLR,SCT,0.01,WeatherDisplay:10.37,2013-09-10 19:44:00,
2013-09-10 12:59:00,83.6,66.8,29.85,North,1,0.0,3.0,57,0.00,CLR,SCT,0.01,WeatherDisplay:10.37,2013-09-10 19:59:00,
2013-09-10 13:14:00,84.1,66.2,29.84,ESE,114,2.0,4.0,55,0.00,CLR,SCT,0.01,WeatherDisplay:10.37,2013-09-10 20:14:00,
2013-09-10 13:29:00,86.0,67.4,29.84,SSE,168,1.0,3.0,54,0.00,CLR,SCT,0.01,WeatherDisplay:10.37,2013-09-10 20:29:00,
2013-09-10 13:44:00,85.3,66.8,29.83,WSW,240,3.0,6.0,54,0.00,CLR,SCT,0.01,WeatherDisplay:10.37,2013-09-10 20:44:00,
2013-09-10 13:59:00,83.9,66.5,29.83,WSW,258,1.0,6.0,56,0.00,CLR,SCT,0.01,WeatherDisplay:10.37,2013-09-10 20:59:00,
2013-09-10 14:14:00,83.7,66.8,29.83,SSW,211,0.0,7.0,57,0.00,CLR,SCT,0.01,WeatherDisplay:10.37,2013-09-10 21:14:00,
2013-09-10 14:29:00,82.2,65.5,29.83,SSW,201,2.0,7.0,57,0.00,CLR,SCT,0.01,WeatherDisplay:10.37,2013-09-10 21:29:00,
2013-09-10 14:44:00,82.4,65.6,29.82,SW,219,1.0,5.0,57,0.00,CLR,SCT,0.01,WeatherDisplay:10.37,2013-09-10 21:44:00,
2013-09-10 14:59:00,82.4,65.6,29.82,South,189,1.0,6.0,57,0.00,CLR,SCT,0.01,WeatherDisplay:10.37,2013-09-10 21:59:00,
2013-09-10 15:14:00,82.7,66.0,29.81,SSW,207,2.0,5.0,57,0.00,CLR,SCT,0.01,WeatherDisplay:10.37,2013-09-10 22:14:00,
2013-09-10 15:29:00,83.9,66.0,29.81,West,263,1.0,4.0,55,0.00,CLR,SCT,0.01,WeatherDisplay:10.37,2013-09-10 22:29:00,
2013-09-10 15:44:00,83.5,66.2,29.81,West,263,1.0,6.0,56,0.00,CLR,SCT,0.01,WeatherDisplay:10.37,2013-09-10 22:44:00,
2013-09-10 15:59:00,83.9,66.0,29.81,SW,223,1.0,5.0,55,0.00,CLR,SCT,0.01,WeatherDisplay:10.37,2013-09-10 22:59:00,
2013-09-10 16:14:00,83.7,65.8,29.80,SSW,199,1.0,5.0,55,0.00,CLR,SCT,0.01,WeatherDisplay:10.37,2013-09-10 23:14:00,
2013-09-10 16:29:00,84.0,65.5,29.80,SW,233,1.0,5.0,54,0.00,CLR,SCT,0.01,WeatherDisplay:10.37,2013-09-10 23:29:00,
2013-09-10 16:44:00,83.7,65.8,29.79,SSE,159,0.0,5.0,55,0.00,CLR,SCT,0.01,WeatherDisplay:10.37,2013-09-10 23:44:00,
2013-09-10 16:59:00,83.5,64.6,29.79,SSW,194,1.0,4.0,53,0.00,CLR,SCT,0.01,WeatherDisplay:10.37,2013-09-10 23:59:00,
2013-09-10 17:14:00,83.2,65.3,29.79,South,186,0.0,3.0,55,0.00,CLR,SCT,0.01,WeatherDisplay:10.37,2013-09-11 00:14:00,
2013-09-10 17:29:00,83.0,65.6,29.79,West,259,0.0,4.0,56,0.00,CLR,SCT,0.01,WeatherDisplay:10.37,2013-09-11 00:29:00,
2013-09-10 17:44:00,83.1,65.3,29.79,SSW,196,0.0,2.0,55,0.00,CLR,SCT,0.01,WeatherDisplay:10.37,2013-09-11 00:44:00,
2013-09-10 17:59:00,82.9,65.6,29.79,SW,231,0.0,2.0,56,0.00,CLR,SCT,0.01,WeatherDisplay:10.37,2013-09-11 00:59:00,
2013-09-10 18:14:00,82.8,66.0,29.79,WSW,238,0.0,1.0,57,0.00,CLR,SCT,0.01,WeatherDisplay:10.37,2013-09-11 01:14:00,
2013-09-10 18:29:00,82.4,65.6,29.79,WSW,238,0.0,1.0,57,0.00,CLR,SCT,0.01,WeatherDisplay:10.37,2013-09-11 01:29:00,
2013-09-10 18:44:00,81.7,65.5,29.78,WSW,238,0.0,1.0,58,0.00,CLR,SCT,0.01,WeatherDisplay:10.37,2013-09-11 01:44:00,
2013-09-10 18:59:00,81.8,66.1,29.78,WSW,238,0.0,1.0,59,0.00,CLR,SCT,0.01,WeatherDisplay:10.37,2013-09-11 01:59:00,
2013-09-10 19:14:00,81.3,65.6,29.78,WSW,238,0.0,0.0,59,0.00,CLR,SCT,0.01,WeatherDisplay:10.37,2013-09-11 02:14:00,
2013-09-10 19:29:00,80.2,65.0,29.78,WSW,238,0.0,0.0,60,0.00,CLR,SCT,0.01,WeatherDisplay:10.37,2013-09-11 02:29:00,
2013-09-10 19:44:00,77.1,64.4,29.78,WSW,238,0.0,0.0,65,0.00,CLR,SCT,0.01,WeatherDisplay:10.37,2013-09-11 02:44:00,
2013-09-10 19:59:00,75.3,64.0,29.78,WSW,238,0.0,0.0,68,0.00,CLR,SCT,0.01,WeatherDisplay:10.37,2013-09-11 02:59:00,
2013-09-10 20:14:00,73.9,64.7,29.79,WSW,238,0.0,0.0,73,0.00,CLR,SCT,0.01,WeatherDisplay:10.37,2013-09-11 03:14:00,
2013-09-10 20:29:00,72.5,64.5,29.79,WSW,238,0.0,0.0,76,0.00,CLR,SCT,0.01,WeatherDisplay:10.37,2013-09-11 03:29:00,
2013-09-10 20:44:00,71.1,64.3,29.79,WSW,238,0.0,0.0,79,0.00,CLR,SCT,0.01,WeatherDisplay:10.37,2013-09-11 03:44:00,
2013-09-10 20:59:00,70.3,64.2,29.79,WSW,238,0.0,0.0,81,0.00,CLR,SCT,0.01,WeatherDisplay:10.37,2013-09-11 03:59:00,
2013-09-10 21:29:00,68.5,63.8,29.79,WSW,238,0.0,0.0,85,0.00,CLR,SCT,0.01,WeatherDisplay:10.37,2013-09-11 04:29:00,
2013-09-10 21:44:00,67.7,63.7,29.79,WSW,238,0.0,0.0,87,0.00,CLR,SCT,0.01,WeatherDisplay:10.37,2013-09-11 04:44:00,
2013-09-10 21:59:00,67.2,63.5,29.80,WSW,238,0.0,0.0,88,0.00,CLR,SCT,0.01,WeatherDisplay:10.37,2013-09-11 04:59:00,
2013-09-10 22:14:00,66.7,63.0,29.80,WSW,238,0.0,0.0,88,0.00,CLR,SCT,0.01,WeatherDisplay:10.37,2013-09-11 05:14:00,
2013-09-10 22:30:00,66.1,63.1,29.80,WSW,238,0.0,0.0,90,0.00,CLR,SCT,0.01,WeatherDisplay:10.37,2013-09-11 05:30:00,
2013-09-10 22:44:00,65.7,63.0,29.80,WSW,238,0.0,0.0,91,0.00,CLR,SCT,0.01,WeatherDisplay:10.37,2013-09-11 05:44:00,
2013-09-10 22:59:00,65.5,62.8,29.81,WSW,238,0.0,0.0,91,0.00,CLR,SCT,0.01,WeatherDisplay:10.37,2013-09-11 05:59:00,
2013-09-10 23:14:00,65.2,62.8,29.81,WSW,238,0.0,0.0,92,0.00,CLR,SCT,0.01,WeatherDisplay:10.37,2013-09-11 06:14:00,
2013-09-10 23:29:00,64.8,62.4,29.81,WSW,238,0.0,0.0,92,0.00,CLR,SCT,0.01,WeatherDisplay:10.37,2013-09-11 06:29:00,
2013-09-10 23:44:00,64.6,62.5,29.82,WSW,238,0.0,0.0,93,0.00,CLR,SCT,0.01,WeatherDisplay:10.37,2013-09-11 06:44:00,
2013-09-10 23:59:00,64.6,62.5,29.83,SW,215,0.0,3.0,93,0.00,RA,SCT,0.00,WeatherDisplay:10.37,2013-09-11 06:59:00,